{"data":{"norad_id":38740,"epoch":"2026-09-19T15:35:14.279712Z","epoch_age_seconds":87906,"freshness":"FRESH","line1":"1 38740U 12043A   26262.64947083 -.00000028  00000+0  00000+0 0  9990","line2":"2 38740   0.0146 155.1326 0001778  15.2259 130.5073  1.00270915 51690","mean_motion":1.00270915,"eccentricity":0.0001778,"inclination_deg":0.0146,"raan_deg":155.1326,"arg_perigee_deg":15.2259,"mean_anomaly_deg":130.5073,"bstar":0,"rev_number":5169,"period_min":1436.1093643157,"perigee_km":35779.341922829,"apogee_km":35794.335788243,"semimajor_km":42164.975855536,"source":"CELESTRAK","updated_at":"2026-09-20T09:00:35.520405Z"}}